Wetbulb
37.80 38.30 39.06 39.97 40.12 39.26 38.48 39.28 40.59 40.34 39.37 37.93 37.94 37.62 37.25 37.25 37.66 37.93 37.96 37.72 38.04 38.20 38.17 38.15 38.16 37.96 37.59 37.08 36.92 36.59 36.21 35.76 35.49 36.35 37.47 37.50 36.13 35.36 35.01 34.75 34.66 34.66 34.85 35.03 34.83 34.87 35.01 35.11 35.64 36.35 37.01 37.45 37.21 36.84 36.78 37.16 36.85 36.74 36.79 36.87 37.38 37.43 36.99 36.48 37.12 37.12 36.81 36.68 37.76
37.53 38.52 40.23 42.58 41.61 39.97 38.76 39.33 40.08 40.00 39.13 37.76 37.78 37.29 36.88 37.34 37.65 37.60 37.30 37.02 37.62 37.73 37.75 37.78 37.69 37.19 36.59 36.54 36.48 35.95 35.43 35.07 34.68 35.04 35.35 35.21 34.70 34.33 34.10 34.16 34.13 34.32 34.65 34.97 34.60 34.96 35.31 34.94 35.12 35.85 36.56 36.65 36.25 35.98 36.00 36.48 36.29 36.16 35.92 35.39 36.28 36.74 36.92 36.79 36.95 36.80 36.62 36.67 37.06
37.24 37.68 38.29 38.75 37.98 37.66 37.70 37.81 37.43 36.66 36.00 36.04 36.28 36.46 36.56 36.82 37.20 37.38 37.31 37.15 36.64 36.40 36.57 37.17 37.00 36.76 36.56 36.17 35.64 35.05 34.54 34.17 33.96 33.87 34.09 34.32 34.26 33.99 33.89 33.91 33.67 34.24 34.89 35.02 34.33 34.42 34.49 33.96 34.82 36.13 37.02 36.76 35.33 35.13 35.40 35.59 35.79 35.71 35.40 35.00 35.75 36.22 36.73 37.49 36.75 36.57 36.79 37.36 36.68
36.05 36.25 36.46 36.46 36.52 36.77 37.13 37.59 36.93 36.18 36.00 36.78 35.09 35.35 36.18 36.25 36.68 36.84 36.68 36.16 35.48 35.75 36.33 36.81 36.55 36.58 36.64 36.43 35.66 34.68 34.27 35.23 35.12 34.70 34.13 34.02 33.79 33.62 33.47 33.31 33.38 33.46 33.44 33.34 33.26 33.14 33.03 32.85 34.11 35.20 35.38 34.34 33.64 33.95 34.59 35.19 34.88 34.89 34.98 35.03 35.33 35.46 35.72 36.52 36.05 36.24 36.63 36.89 36.14
35.52 35.57 35.75 36.06 36.22 36.19 36.10 36.04 36.31 36.19 36.07 36.46 35.63 35.45 35.64 35.86 36.22 36.08 35.95 36.64 36.80 37.00 36.82 36.03 36.07 36.48 36.72 36.30 34.99 33.96 33.32 33.56 35.95 35.33 33.79 33.07 32.96 32.80 32.71 32.73 32.82 32.82 32.77 32.78 32.56 32.44 32.33 32.18 33.60 34.14 33.95 33.29 34.22 34.36 33.95 33.33 33.21 33.43 33.93 34.71 34.83 34.86 34.93 35.29 35.41 35.39 35.57 36.08 35.64
35.42 34.88 34.59 34.66 34.79 34.77 34.74 34.64 34.88 34.91 35.01 35.30 35.25 35.41 35.80 36.21 36.16 36.13 36.23 36.87 36.81 36.26 35.89 36.64 37.46 38.17 37.73 35.13 33.70 32.89 32.47 32.07 32.68 32.63 32.26 32.33 32.41 32.43 32.40 32.42 32.29 32.22 32.15 32.18 31.88 31.78 31.59 31.45 33.64 34.27 34.23 34.17 33.86 33.46 32.92 32.14 32.28 32.65 33.29 34.14 34.26 34.25 34.22 34.18 34.53 34.75 34.64 34.21 33.57
35.34 34.98 34.58 34.16 33.98 34.23 34.22 33.79 33.46 33.22 33.27 34.00 34.44 35.03 35.58 35.61 35.39 35.16 35.17 35.40 35.47 35.62 36.35 38.14 37.56 36.57 35.14 33.26 32.70 32.32 32.14 32.06 31.83 31.83 31.95 32.13 32.12 32.20 32.20 32.16 31.90 31.73 31.70 31.65 31.56 31.39 31.34 31.13 33.27 34.66 35.53 36.23 35.49 34.20 32.70 31.64 31.62 32.04 32.69 33.51 34.09 34.10 33.68 33.21 33.58 33.85 33.67 32.72 31.49
34.79 35.12 34.99 34.60 34.36 34.08 33.76 33.39 33.12 33.16 33.83 35.25 34.99 34.91 34.84 34.52 34.34 34.19 34.12 33.91 34.54 35.32 36.14 36.72 34.74 33.47 32.65 32.22 32.11 32.05 31.99 31.89 31.99 32.03 31.98 31.99 31.94 31.86 31.81 31.68 31.72 31.75 31.69 31.70 31.63 31.34 31.28 31.96 33.36 33.79 33.97 34.51 34.83 34.19 32.91 31.54 30.83 30.99 31.53 32.35 33.69 33.77 33.57 34.00 33.35 33.15 32.88 31.99 30.95
34.38 34.28 34.06 33.91 33.71 33.39 33.07 32.60 32.60 33.20 33.98 34.14 34.17 34.05 33.87 33.93 33.80 33.79 33.77 34.08 35.38 35.58 35.19 34.41 33.31 32.59 32.14 31.89 31.81 31.85 31.88 32.01 32.15 32.19 32.05 31.98 32.11 31.98 31.95 32.10 32.11 32.25 32.40 32.13 32.09 31.50 31.41 32.59 33.47 33.72 33.73 34.07 34.04 33.60 32.52 31.04 30.45 30.31 30.80 32.05 33.13 33.18 32.90 32.83 32.42 32.11 31.83 31.50 31.15
34.27 33.64 33.22 33.30 32.93 33.20 33.19 31.65 32.22 32.85 33.19 33.16 33.10 32.91 33.43 35.84 35.10 34.24 33.91 34.54 35.10 34.52 33.48 32.85 32.56 32.33 32.12 31.93 31.94 32.00 32.13 32.23 32.30 32.17 32.08 32.26 32.68 32.36 32.08 32.57 32.30 32.62 32.95 32.86 32.83 32.24 31.94 32.79 33.36 33.37 33.00 32.50 32.21 31.76 31.22 30.45 30.14 29.96 30.62 32.68 32.92 32.65 32.39 32.64 32.03 31.43 31.32 32.02 31.53
33.65 33.18 32.93 32.96 33.03 33.53 33.28 31.36 32.41 32.94 32.99 32.32 32.09 31.88 32.32 33.91 33.35 33.33 33.58 34.03 33.34 32.91 32.65 32.68 32.48 32.26 32.15 32.26 32.23 32.47 32.66 32.68 32.49 32.17 31.92 32.00 32.49 32.18 31.74 32.04 31.86 32.13 32.48 32.89 32.64 32.72 33.04 33.41 33.16 32.70 32.21 31.99 31.51 31.41 31.21 30.55 30.27 30.24 30.62 31.78 31.56 31.56 31.63 31.77 31.66 31.51 31.55 31.88 31.22
32.79 32.48 32.23 31.98 31.68 31.59 31.50 31.15 31.51 31.95 32.08 31.75 31.56 31.37 31.30 31.35 31.43 32.39 33.19 32.88 32.52 32.63 32.79 32.74 32.56 32.31 32.27 32.96 32.59 32.96 33.27 32.46 31.96 31.92 32.12 32.09 31.82 31.63 31.63 31.74 31.71 31.75 31.94 32.09 31.86 32.60 33.22 32.91 32.58 32.09 31.54 30.89 31.97 32.37 32.08 30.90 30.65 30.66 30.77 30.95 30.80 31.10 31.48 31.75 31.66 32.00 32.21 31.61 31.38
31.98 31.62 31.18 30.82 30.37 30.27 30.42 30.77 30.62 30.73 30.89 31.11 31.00 31.00 31.14 31.23 31.78 32.47 32.83 32.13 32.32 32.53 32.70 32.65 32.85 32.73 32.56 32.84 32.74 32.75 32.68 32.25 31.75 31.95 32.36 32.36 32.32 32.01 31.87 32.06 31.97 31.71 31.58 31.94 31.65 32.14 32.52 32.13 31.36 31.08 31.18 31.21 32.09 32.33 31.87 30.73 30.57 30.66 30.77 30.90 30.92 31.08 31.26 31.38 31.68 31.74 31.47 30.60 31.18
30.72 30.56 30.29 29.96 29.83 29.96 30.17 30.52 30.59 30.61 30.63 30.65 30.66 30.75 30.73 30.79 31.75 32.62 32.90 32.03 31.88 32.00 32.14 32.23 33.07 33.44 33.38 32.79 32.71 32.38 32.00 32.10 31.58 31.39 31.52 32.20 32.39 32.09 31.90 32.32 31.80 31.48 31.54 32.09 31.47 31.05 31.01 31.32 30.89 30.77 30.80 30.86 31.27 31.32 31.06 30.41 30.43 30.49 30.43 30.62 30.66 30.78 31.01 31.30 31.40 31.27 30.90 30.36 30.75
30.18 29.93 29.70 29.48 29.58 29.82 30.05 30.20 30.71 30.88 30.76 30.53 30.53 30.49 30.52 30.62 31.79 32.66 32.80 31.93 31.66 31.65 31.85 32.04 32.98 33.40 33.38 32.74 32.17 31.71 31.35 31.10 31.01 31.08 31.42 31.76 31.86 31.68 31.68 31.98 31.55 31.26 31.25 31.41 30.90 30.51 30.27 30.31 30.47 30.53 30.58 30.65 30.70 30.68 30.55 30.32 30.20 30.23 30.33 30.37 30.46 30.60 30.89 31.08 31.13 31.05 30.73 30.36 30.57
30.23 29.81 29.37 29.32 29.66 29.83 29.86 29.83 30.33 30.48 30.51 30.45 30.34 30.21 30.26 30.55 31.28 32.19 32.59 32.21 32.19 32.19 32.06 31.87 32.50 32.52 32.44 32.67 32.46 31.88 31.22 30.91 30.82 30.85 31.08 31.52 31.60 31.50 31.41 31.38 31.31 31.02 30.66 30.38 30.41 30.36 30.33 30.42 30.70 30.53 30.21 30.06 30.06 30.11 30.07 30.02 29.97 29.95 29.99 30.12 30.29 30.48 30.70 31.04 31.12 31.01 30.72 30.58 31.26
30.18 29.69 29.19 29.19 29.64 29.80 29.75 29.47 29.56 29.76 30.05 30.14 30.05 30.05 30.22 30.56 31.06 32.13 33.12 33.52 33.00 32.56 32.15 31.80 32.03 31.92 31.80 32.26 32.32 31.87 31.39 31.16 31.17 31.28 31.39 31.64 31.38 31.15 31.01 30.80 30.89 30.65 30.21 29.89 30.03 30.23 30.43 30.50 30.69 30.41 29.82 29.44 29.60 29.64 29.67 29.53 29.78 29.91 30.00 30.18 30.36 30.30 30.56 31.39 31.69 31.58 31.17 30.85 32.21
30.10 29.55 29.08 29.05 29.48 29.62 29.61 29.28 29.18 29.38 29.67 29.88 29.91 30.12 30.44 30.83 31.25 31.93 32.54 33.02 32.31 31.68 31.33 31.50 31.30 31.02 30.68 30.70 30.90 31.35 31.61 31.47 31.46 31.50 31.41 31.25 30.82 30.58 30.45 30.30 30.41 30.12 29.72 29.41 29.49 29.78 30.04 30.10 30.13 30.08 29.85 29.49 29.51 29.51 29.58 29.57 29.83 30.00 30.02 30.25 30.27 30.21 30.50 31.35 32.00 32.43 32.37 31.93 32.87
29.98 29.61 29.29 29.28 29.48 29.53 29.84 30.62 30.18 29.85 29.81 29.91 30.05 30.34 30.67 30.97 31.00 31.10 31.25 31.30 31.75 31.45 30.92 30.68 30.64 30.36 30.10 29.98 30.10 30.97 31.72 31.51 31.06 30.88 30.71 30.47 30.21 30.06 29.98 30.05 29.92 29.55 29.08 28.75 28.83 29.04 29.28 29.47 29.47 29.51 29.54 29.56 29.59 29.71 29.78 29.85 30.08 30.22 30.25 30.29 30.08 30.46 31.12 32.18 32.85 33.35 33.63 33.60 33.86
29.86 29.81 29.75 29.57 29.40 29.38 29.66 30.53 30.24 29.94 29.75 29.92 30.06 30.43 30.83 31.02 30.80 30.64 30.71 31.03 31.30 30.86 30.03 29.42 29.83 29.93 29.84 29.60 29.60 29.93 30.46 30.97 30.52 30.30 30.17 30.05 29.83 29.74 29.65 29.66 29.40 29.14 28.71 28.29 28.46 28.56 28.58 28.77 28.87 28.88 29.02 29.20 29.50 29.58 29.79 29.93 30.28 30.29 30.31 30.43 30.45 31.14 32.14 32.98 33.10 33.21 33.30 33.57 33.77
29.94 29.91 29.75 29.45 29.17 29.08 29.19 29.32 29.34 29.48 29.57 29.77 30.08 30.44 30.74 30.74 30.47 30.23 30.32 30.76 30.49 29.79 29.10 28.73 28.89 29.16 29.45 29.52 29.60 29.50 29.78 30.88 30.46 30.14 30.07 30.11 29.90 29.75 29.70 29.67 29.25 29.09 28.90 28.45 28.46 28.32 28.26 28.46 28.51 28.71 28.98 29.23 29.58 29.83 30.00 30.39 30.60 30.49 30.38 30.74 31.30 31.94 32.48 32.81 33.28 33.41 33.39 33.43 33.57
30.03 29.79 29.41 29.03 28.91 28.90 28.94 28.93 28.99 29.23 29.48 29.78 30.14 30.34 30.33 30.24 30.22 30.07 29.81 29.59 29.42 29.06 28.72 28.54 28.56 28.80 29.04 29.28 29.44 29.47 29.77 30.60 30.07 30.03 30.09 30.23 30.32 30.31 30.22 29.98 28.99 28.68 28.67 28.38 28.37 28.19 28.12 28.34 28.59 28.68 28.97 29.55 29.65 29.92 30.23 30.69 30.76 30.60 30.62 30.99 31.58 32.08 32.51 32.92 33.85 34.25 34.35 34.38 34.60
29.98 29.43 28.93 28.56 28.41 29.56 30.63 30.28 29.62 29.45 29.57 29.80 29.90 29.92 29.87 29.92 29.80 29.44 28.97 28.51 28.98 29.03 28.76 28.74 28.84 28.84 28.84 28.86 28.80 28.79 28.96 29.24 29.44 29.69 29.75 29.61 29.63 29.52 29.38 29.34 28.72 28.52 28.72 29.20 28.70 28.46 28.53 29.13 29.58 29.70 29.82 30.10 29.78 29.82 30.12 30.21 30.51 30.75 30.85 31.17 31.82 32.25 32.68 33.58 34.35 34.76 34.96 35.15 35.39
29.74 29.32 28.97 28.57 28.20 28.69 29.21 29.40 29.32 29.54 29.70 29.79 29.92 29.85 29.66 29.66 29.31 28.93 28.56 28.22 28.22 28.08 28.22 29.08 29.16 28.88 28.58 28.25 28.01 27.99 28.13 28.34 28.85 29.05 29.06 29.25 29.47 29.40 29.28 29.61 29.46 29.37 29.48 29.87 30.99 31.75 32.30 32.82 32.26 31.95 31.79 31.53 31.33 31.28 31.27 31.13 31.20 31.15 31.08 31.29 31.87 32.33 32.96 33.87 34.47 34.87 35.10 35.25 35.60
29.14 29.37 29.56 28.90 28.62 28.58 28.77 29.08 29.47 29.68 29.93 30.33 30.10 29.76 29.49 29.31 28.88 28.60 28.50 28.33 28.23 28.14 28.02 28.06 28.05 28.06 28.18 28.39 28.31 28.18 28.13 28.11 28.44 28.51 28.76 29.25 29.61 29.73 29.87 30.35 30.44 30.50 30.81 31.82 35.35 37.50 38.39 38.17 36.52 34.74 33.39 32.76 32.71 32.75 32.88 32.86 32.25 32.02 31.98 32.02 32.37 32.73 33.16 33.82 34.33 34.77 35.10 35.25 35.41
28.62 28.66 28.94 28.84 28.97 29.10 29.36 29.65 29.89 30.19 30.42 30.48 30.10 29.73 29.36 28.96 28.83 28.55 28.36 28.23 28.23 28.04 27.87 27.68 27.54 28.81 30.09 29.87 29.46 29.10 28.86 29.04 29.06 28.74 28.68 29.48 29.47 29.57 29.84 30.52 30.97 30.70 31.19 33.82 37.01 38.74 39.65 40.00 39.75 38.27 36.21 34.19 33.58 33.01 32.59 32.22 32.65 33.11 33.31 33.33 33.34 33.19 33.23 33.68 34.14 34.56 34.99 35.33 34.94
28.61 28.75 28.97 29.16 29.31 29.45 29.73 30.17 30.54 30.78 30.95 30.93 30.45 30.05 29.62 28.79 28.64 28.37 28.04 27.83 27.75 27.58 27.39 27.37 27.58 30.04 31.89 30.61 29.66 29.25 29.25 29.65 29.39 28.83 28.49 28.73 29.01 29.20 29.57 30.30 30.42 30.66 31.88 35.35 37.90 39.14 39.70 40.09 40.17 39.76 38.58 36.29 34.94 33.81 33.05 32.89 33.67 34.18 34.38 34.32 33.74 33.49 33.40 33.39 33.86 34.33 34.81 35.07 34.85
29.24 29.46 29.58 29.51 29.78 30.27 30.85 31.34 31.42 31.68 31.74 31.61 30.79 29.99 29.34 28.79 28.21 27.81 27.58 27.46 27.19 27.14 27.23 27.62 28.87 30.07 30.67 30.11 29.68 29.59 29.53 29.49 29.57 29.47 29.33 29.03 29.10 29.06 29.32 30.02 29.99 31.16 33.63 37.22 38.62 39.36 39.67 39.84 39.97 39.93 39.48 38.30 36.39 34.58 33.65 34.01 34.16 34.34 34.46 34.41 34.06 34.01 34.02 33.83 33.90 34.13 34.35 34.36 34.57
29.64 29.90 30.08 30.23 30.86 31.63 32.30 32.69 32.66 32.77 32.47 31.62 30.50 29.69 29.05 28.50 27.93 27.54 27.28 27.03 27.04 27.32 27.96 29.07 30.34 30.54 30.24 29.90 30.11 29.99 29.70 29.33 29.74 29.71 29.33 28.80 28.71 28.86 29.16 29.57 29.65 31.59 34.57 37.86 38.61 39.12 39.38 39.56 39.77 39.89 39.89 39.57 37.36 35.48 34.45 34.76 34.71 34.63 34.46 34.43 34.47 34.49 34.35 34.17 33.96 34.05 34.12 33.97 33.71
29.44 29.93 30.42 30.82 31.80 32.72 33.27 33.52 33.50 33.06 32.20 31.25 30.30 29.40 28.50 28.05 27.61 27.17 26.93 27.01 27.57 28.47 29.43 30.20 30.21 30.04 30.00 30.18 30.23 30.40 30.47 30.26 30.04 29.41 28.58 28.08 28.28 28.88 29.80 30.72 30.15 31.35 33.98 37.39 38.27 38.84 39.18 39.44 39.65 39.85 39.90 39.86 38.33 36.85 35.63 35.14 34.93 34.75 34.65 34.56 34.41 34.28 33.98 33.39 33.54 33.73 33.77 33.48 32.91
29.95 30.40 31.02 31.84 32.62 33.18 33.50 33.65 33.28 32.34 31.23 30.53 29.43 28.56 28.02 27.77 27.39 27.35 27.57 28.11 28.89 30.24 31.15 30.76 29.97 29.66 29.74 30.04 29.91 29.96 30.01 30.09 29.46 28.83 28.28 27.89 29.59 30.23 30.17 29.89 29.16 30.62 33.54 37.02 38.07 38.73 39.15 39.45 39.61 39.77 39.85 39.86 38.51 37.07 35.72 35.17 34.72 34.61 34.42 34.22 34.04 33.92 33.73 33.33 33.15 33.04 32.65 31.92 31.93
31.22 31.70 32.23 32.72 33.03 33.32 33.49 33.32 32.57 31.44 30.19 29.01 28.27 28.00 27.83 27.60 27.62 27.78 28.29 29.02 29.86 30.33 30.43 30.21 30.00 30.00 30.17 30.09 29.87 29.67 29.50 29.54 29.41 29.33 29.40 29.42 29.39 29.12 29.06 29.60 28.88 30.54 33.65 37.11 38.11 38.74 39.12 39.36 39.48 39.57 39.65 39.69 38.48 37.12 35.71 34.89 34.55 34.42 34.24 33.86 33.65 33.47 33.46 33.31 32.46 31.58 31.14 31.37 31.66
32.29 32.57 32.67 32.80 33.00 33.01 32.95 32.53 31.53 30.37 29.30 28.52 28.02 27.87 27.92 27.78 27.78 28.08 28.51 29.35 30.15 30.26 30.16 30.24 30.34 30.37 30.33 30.33 29.96 29.66 29.54 29.67 29.97 30.56 30.91 30.70 29.57 28.91 28.88 29.71 29.43 31.70 34.89 37.53 38.29 38.67 38.96 39.08 39.24 39.32 39.45 39.49 38.04 36.54 35.28 34.63 34.47 34.27 34.06 33.82 33.79 33.74 33.31 32.06 31.68 31.42 31.35 31.55 32.10
32.88 32.73 32.47 32.34 32.47 32.42 32.11 31.50 30.37 29.43 28.73 28.16 28.02 27.87 27.93 27.91 28.14 28.62 29.36 30.57 31.10 31.16 30.95 30.79 30.62 30.39 30.20 30.00 29.65 29.51 30.00 31.54 30.87 29.91 29.04 28.55 28.24 28.39 28.91 29.54 30.14 32.86 35.97 37.63 38.20 38.54 38.71 38.87 38.99 39.08 39.12 39.05 37.24 35.67 34.47 34.15 34.05 33.89 33.72 33.57 33.69 33.27 32.50 31.49 31.17 31.15 31.55 32.18 33.02
32.93 32.35 31.84 31.67 31.67 31.49 31.09 30.33 29.25 28.42 28.00 27.78 27.78 27.86 27.95 28.12 28.65 29.19 30.12 31.68 32.27 31.83 31.13 30.79 30.51 30.21 29.91 29.60 29.17 29.16 29.67 30.79 30.09 29.46 28.96 28.75 28.72 29.01 29.48 29.72 30.11 32.75 35.78 37.33 37.83 38.24 38.50 38.63 38.75 38.84 38.60 37.95 35.83 34.43 33.74 33.63 33.58 33.43 33.32 33.22 32.96 32.26 31.72 31.67 31.61 31.81 32.39 33.02 33.23
32.19 31.46 31.01 30.97 30.71 30.27 29.69 28.89 28.01 27.48 27.28 27.40 27.70 27.99 28.27 28.60 29.06 29.69 30.71 32.51 32.35 31.50 30.69 30.42 30.21 30.01 29.69 29.41 29.28 29.67 30.08 29.88 29.60 29.56 29.55 29.75 29.48 29.31 29.19 29.35 29.47 31.91 34.86 36.82 37.45 37.83 38.17 38.34 38.43 38.47 37.93 36.50 34.29 33.48 33.41 33.46 33.34 33.02 32.70 32.37 31.78 31.33 31.12 31.28 31.72 32.18 32.51 32.80 32.68
31.20 30.57 30.13 29.96 29.68 29.17 28.48 27.66 27.17 26.96 27.18 27.52 27.98 28.42 28.83 29.24 29.52 30.02 30.82 32.18 31.11 30.42 30.14 30.07 29.98 29.80 29.66 29.45 29.79 29.87 29.85 29.60 29.56 29.68 30.08 30.71 30.20 29.60 29.11 29.23 28.99 30.75 33.54 36.10 36.95 37.54 37.88 38.05 38.18 37.98 37.05 34.80 33.38 33.08 33.27 33.13 32.96 32.35 31.67 30.97 31.01 30.86 31.06 31.74 32.15 32.37 32.50 32.55 32.92
30.37 29.67 29.34 28.99 28.62 28.15 27.52 26.91 26.95 27.15 27.55 27.88 28.42 28.93 29.36 29.59 29.96 30.40 31.22 32.48 30.88 30.13 29.82 29.75 29.80 29.88 29.91 29.87 30.39 30.53 30.32 30.11 30.12 30.21 30.10 29.95 29.60 29.25 29.10 29.09 29.05 30.23 32.41 35.27 36.49 37.12 37.38 37.63 37.77 37.52 36.55 34.30 33.30 33.03 33.09 32.78 32.16 31.70 31.31 31.14 31.46 31.28 31.32 32.21 32.72 32.92 33.05 33.17 35.05
29.38 28.60 28.06 27.87 27.68 27.42 27.22 27.01 27.22 27.56 27.99 28.35 28.73 29.05 29.25 29.44 29.93 30.78 31.64 32.28 30.72 29.92 29.54 29.38 29.67 30.16 30.61 31.03 31.29 31.02 30.60 30.19 30.25 30.29 30.10 29.30 29.29 30.10 30.68 29.99 29.42 30.06 31.81 34.60 35.83 36.50 36.88 37.17 37.35 37.44 36.88 35.29 33.83 33.19 32.89 32.57 31.86 31.53 31.30 31.44 31.70 31.58 31.69 32.37 32.93 33.40 33.74 34.01 36.74
28.21 27.63 27.29 27.16 27.36 27.43 27.38 27.36 27.54 27.91 28.30 28.63 28.79 28.95 29.24 29.71 30.73 31.52 31.90 31.58 30.32 29.68 29.40 29.41 29.71 30.34 31.16 32.37 31.73 30.84 30.15 29.93 29.48 29.42 29.53 29.47 29.95 31.56 32.56 30.86 29.35 29.22 30.55 33.33 34.86 35.78 36.33 36.79 37.10 37.27 36.85 35.13 33.82 33.20 32.87 32.48 32.00 31.59 31.33 31.44 31.66 31.96 32.42 33.05 33.52 34.17 34.80 35.30 37.19
27.35 27.26 27.35 27.57 27.52 27.51 27.58 27.68 27.75 27.91 28.26 28.58 28.69 29.20 30.10 31.25 31.41 31.22 30.83 30.31 29.69 29.55 29.79 30.41 30.38 30.49 30.90 31.97 31.32 30.36 29.58 29.27 29.18 28.96 28.99 29.56 29.76 30.94 31.44 29.75 28.26 27.62 28.35 30.56 33.28 35.00 36.02 36.58 36.97 37.27 36.85 35.26 34.00 33.37 32.99 32.47 31.93 31.40 31.05 31.12 31.72 32.21 32.74 33.30 34.01 34.93 35.83 36.58 36.75
MSLP
1022.29 1022.45 1022.57 1022.65 1022.77 1022.97 1023.13 1023.17 1023.29 1023.37 1023.45 1023.61 1023.65 1023.77 1023.81 1023.85 1023.89 1023.89 1023.81 1023.77 1023.77 1023.69 1023.61 1023.49 1023.45 1023.33 1023.25 1023.17 1023.17 1023.17 1023.13 1023.05 1023.05 1022.97 1022.89 1022.85 1022.81 1022.73 1022.65 1022.61 1022.53 1022.45 1022.45 1022.37 1022.33 1022.25 1022.17 1022.13 1022.09 1022.01 1021.89 1021.77 1021.73 1021.65 1021.61 1021.45 1021.45 1021.41 1021.33 1021.29 1021.25 1021.17 1021.13 1021.09 1021.05 1020.89 1020.85 1020.73 1020.65
1022.37 1022.45 1022.57 1022.61 1022.73 1022.89 1023.09 1023.21 1023.29 1023.33 1023.45 1023.49 1023.53 1023.61 1023.69 1023.69 1023.77 1023.73 1023.69 1023.65 1023.61 1023.49 1023.45 1023.37 1023.33 1023.29 1023.21 1023.13 1023.09 1023.09 1023.09 1023.05 1023.01 1022.93 1022.89 1022.81 1022.73 1022.69 1022.61 1022.53 1022.45 1022.41 1022.37 1022.33 1022.25 1022.17 1022.13 1022.09 1022.05 1021.97 1021.85 1021.73 1021.69 1021.61 1021.53 1021.41 1021.37 1021.37 1021.33 1021.29 1021.17 1021.13 1021.05 1021.01 1020.89 1020.81 1020.73 1020.65 1020.53
1022.37 1022.49 1022.61 1022.73 1022.89 1023.01 1023.13 1023.25 1023.33 1023.37 1023.45 1023.45 1023.49 1023.53 1023.61 1023.61 1023.61 1023.61 1023.61 1023.49 1023.45 1023.45 1023.41 1023.37 1023.29 1023.21 1023.17 1023.13 1023.05 1023.05 1023.05 1023.05 1023.01 1022.97 1022.89 1022.77 1022.69 1022.61 1022.53 1022.45 1022.41 1022.33 1022.25 1022.17 1022.17 1022.13 1022.05 1022.05 1022.01 1021.89 1021.77 1021.73 1021.69 1021.61 1021.53 1021.41 1021.33 1021.33 1021.33 1021.21 1021.13 1021.05 1020.97 1020.89 1020.81 1020.73 1020.65 1020.57 1020.49
1022.45 1022.61 1022.73 1022.89 1022.97 1023.05 1023.09 1023.13 1023.17 1023.29 1023.37 1023.41 1023.45 1023.49 1023.57 1023.61 1023.57 1023.57 1023.53 1023.49 1023.45 1023.45 1023.41 1023.33 1023.25 1023.17 1023.17 1023.13 1023.05 1023.05 1023.01 1022.97 1022.93 1022.89 1022.85 1022.73 1022.61 1022.53 1022.49 1022.45 1022.37 1022.29 1022.17 1022.17 1022.13 1022.05 1022.05 1021.97 1021.89 1021.81 1021.77 1021.73 1021.69 1021.61 1021.49 1021.37 1021.33 1021.33 1021.21 1021.13 1021.05 1021.01 1020.93 1020.85 1020.73 1020.65 1020.57 1020.49 1020.45
1022.65 1022.73 1022.81 1022.89 1022.97 1023.01 1023.05 1023.05 1023.13 1023.21 1023.33 1023.37 1023.45 1023.49 1023.53 1023.57 1023.57 1023.57 1023.53 1023.49 1023.45 1023.37 1023.33 1023.29 1023.25 1023.17 1023.13 1023.09 1023.05 1023.05 1022.97 1022.89 1022.85 1022.81 1022.73 1022.69 1022.57 1022.45 1022.41 1022.37 1022.33 1022.21 1022.13 1022.05 1022.05 1022.01 1021.97 1021.93 1021.85 1021.77 1021.73 1021.65 1021.61 1021.49 1021.41 1021.37 1021.33 1021.29 1021.17 1021.05 1021.01 1020.93 1020.89 1020.77 1020.69 1020.61 1020.49 1020.45 1020.33
1022.73 1022.85 1022.93 1022.97 1022.97 1023.01 1023.05 1023.05 1023.13 1023.21 1023.29 1023.33 1023.45 1023.49 1023.53 1023.53 1023.57 1023.57 1023.57 1023.53 1023.45 1023.33 1023.25 1023.21 1023.17 1023.09 1023.05 1023.09 1023.05 1023.05 1022.97 1022.89 1022.85 1022.77 1022.73 1022.65 1022.53 1022.45 1022.33 1022.33 1022.21 1022.13 1022.05 1022.05 1021.97 1021.89 1021.89 1021.89 1021.77 1021.69 1021.61 1021.57 1021.45 1021.37 1021.33 1021.33 1021.29 1021.25 1021.17 1021.05 1020.93 1020.89 1020.81 1020.73 1020.61 1020.53 1020.45 1020.37 1020.33
1022.77 1022.89 1022.97 1023.01 1023.05 1023.05 1023.05 1023.13 1023.17 1023.25 1023.33 1023.37 1023.45 1023.53 1023.57 1023.57 1023.57 1023.57 1023.57 1023.53 1023.41 1023.33 1023.25 1023.17 1023.13 1023.09 1023.09 1023.09 1023.05 1023.05 1022.93 1022.85 1022.77 1022.73 1022.65 1022.61 1022.45 1022.37 1022.33 1022.25 1022.17 1022.09 1022.05 1021.97 1021.89 1021.89 1021.85 1021.85 1021.73 1021.61 1021.49 1021.45 1021.37 1021.29 1021.25 1021.25 1021.17 1021.17 1021.09 1021.01 1020.85 1020.77 1020.73 1020.65 1020.49 1020.41 1020.33 1020.33 1020.25
1022.77 1022.89 1022.97 1023.05 1023.05 1023.09 1023.13 1023.17 1023.17 1023.21 1023.33 1023.41 1023.45 1023.49 1023.53 1023.57 1023.57 1023.53 1023.49 1023.45 1023.41 1023.33 1023.25 1023.17 1023.17 1023.13 1023.13 1023.13 1023.05 1022.97 1022.89 1022.85 1022.73 1022.65 1022.57 1022.49 1022.45 1022.37 1022.29 1022.21 1022.17 1022.05 1022.01 1021.89 1021.85 1021.81 1021.77 1021.73 1021.61 1021.57 1021.49 1021.41 1021.33 1021.25 1021.17 1021.17 1021.17 1021.13 1021.05 1020.93 1020.73 1020.65 1020.57 1020.45 1020.37 1020.33 1020.25 1020.21 1020.13
1022.89 1022.97 1023.05 1023.05 1023.13 1023.17 1023.17 1023.17 1023.17 1023.29 1023.33 1023.41 1023.45 1023.45 1023.49 1023.57 1023.53 1023.49 1023.45 1023.45 1023.33 1023.21 1023.17 1023.17 1023.17 1023.13 1023.05 1023.05 1023.01 1022.93 1022.85 1022.77 1022.69 1022.61 1022.49 1022.45 1022.41 1022.33 1022.25 1022.17 1022.05 1022.01 1021.89 1021.85 1021.77 1021.77 1021.73 1021.61 1021.49 1021.45 1021.41 1021.33 1021.25 1021.17 1021.09 1021.09 1021.05 1021.05 1020.93 1020.81 1020.65 1020.49 1020.37 1020.33 1020.29 1020.21 1020.17 1020.09 1020.01
1022.97 1023.05 1023.09 1023.13 1023.17 1023.17 1023.17 1023.17 1023.21 1023.29 1023.33 1023.41 1023.45 1023.45 1023.45 1023.45 1023.45 1023.41 1023.41 1023.33 1023.25 1023.17 1023.17 1023.17 1023.09 1023.05 1023.05 1022.97 1022.89 1022.85 1022.77 1022.69 1022.61 1022.57 1022.45 1022.41 1022.33 1022.29 1022.17 1022.13 1022.05 1021.93 1021.85 1021.73 1021.65 1021.61 1021.61 1021.53 1021.45 1021.37 1021.33 1021.21 1021.17 1021.13 1021.05 1020.97 1020.97 1020.89 1020.77 1020.61 1020.49 1020.37 1020.25 1020.17 1020.13 1020.09 1020.01 1019.89 1019.85
1023.01 1023.05 1023.13 1023.17 1023.17 1023.17 1023.17 1023.25 1023.25 1023.29 1023.33 1023.41 1023.41 1023.41 1023.41 1023.37 1023.37 1023.33 1023.29 1023.29 1023.25 1023.21 1023.17 1023.09 1023.05 1023.05 1022.97 1022.93 1022.85 1022.73 1022.65 1022.61 1022.57 1022.49 1022.41 1022.33 1022.25 1022.17 1022.17 1022.09 1022.01 1021.93 1021.81 1021.69 1021.61 1021.61 1021.53 1021.45 1021.33 1021.29 1021.21 1021.13 1021.13 1021.05 1020.93 1020.85 1020.81 1020.73 1020.61 1020.49 1020.41 1020.33 1020.17 1020.05 1019.97 1019.89 1019.85 1019.77 1019.69
1023.05 1023.09 1023.17 1023.17 1023.21 1023.17 1023.17 1023.25 1023.33 1023.33 1023.37 1023.41 1023.41 1023.41 1023.37 1023.33 1023.33 1023.33 1023.25 1023.25 1023.25 1023.17 1023.05 1023.01 1022.97 1022.97 1022.97 1022.85 1022.73 1022.65 1022.57 1022.49 1022.49 1022.45 1022.37 1022.29 1022.17 1022.13 1022.05 1022.01 1021.89 1021.85 1021.77 1021.61 1021.57 1021.49 1021.45 1021.37 1021.33 1021.21 1021.17 1021.05 1021.01 1020.89 1020.81 1020.73 1020.65 1020.61 1020.49 1020.33 1020.29 1020.17 1020.05 1019.89 1019.81 1019.77 1019.69 1019.61 1019.53
1023.01 1023.09 1023.17 1023.17 1023.21 1023.21 1023.25 1023.29 1023.33 1023.37 1023.41 1023.41 1023.41 1023.37 1023.33 1023.33 1023.29 1023.25 1023.21 1023.21 1023.17 1023.09 1023.01 1022.89 1022.89 1022.89 1022.85 1022.73 1022.69 1022.61 1022.49 1022.45 1022.41 1022.33 1022.29 1022.21 1022.13 1022.05 1021.97 1021.89 1021.77 1021.73 1021.65 1021.57 1021.49 1021.45 1021.37 1021.33 1021.29 1021.21 1021.09 1020.97 1020.89 1020.77 1020.69 1020.61 1020.57 1020.45 1020.37 1020.25 1020.17 1020.05 1019.93 1019.77 1019.69 1019.61 1019.53 1019.45 1019.41
1023.05 1023.13 1023.17 1023.21 1023.25 1023.25 1023.29 1023.37 1023.37 1023.41 1023.41 1023.45 1023.37 1023.33 1023.33 1023.25 1023.21 1023.17 1023.17 1023.17 1023.13 1023.05 1023.01 1022.89 1022.81 1022.73 1022.73 1022.65 1022.61 1022.53 1022.45 1022.37 1022.33 1022.29 1022.21 1022.13 1022.05 1021.97 1021.89 1021.77 1021.73 1021.61 1021.57 1021.45 1021.41 1021.33 1021.33 1021.25 1021.17 1021.13 1021.05 1020.89 1020.73 1020.65 1020.61 1020.53 1020.45 1020.33 1020.25 1020.17 1020.05 1019.89 1019.77 1019.61 1019.53 1019.45 1019.41 1019.33 1019.25
1023.05 1023.17 1023.17 1023.21 1023.25 1023.29 1023.37 1023.41 1023.41 1023.41 1023.41 1023.41 1023.33 1023.29 1023.25 1023.17 1023.13 1023.13 1023.13 1023.13 1023.09 1023.05 1023.01 1022.89 1022.81 1022.69 1022.57 1022.53 1022.49 1022.45 1022.33 1022.33 1022.25 1022.17 1022.13 1022.05 1021.93 1021.89 1021.81 1021.73 1021.61 1021.53 1021.45 1021.37 1021.33 1021.29 1021.21 1021.17 1021.09 1020.97 1020.89 1020.77 1020.65 1020.53 1020.45 1020.37 1020.29 1020.17 1020.09 1020.01 1019.89 1019.73 1019.61 1019.45 1019.37 1019.33 1019.29 1019.21 1019.13
1023.09 1023.17 1023.21 1023.25 1023.29 1023.33 1023.37 1023.45 1023.41 1023.41 1023.41 1023.37 1023.29 1023.21 1023.17 1023.13 1023.09 1023.05 1023.05 1023.05 1023.01 1022.97 1022.89 1022.85 1022.73 1022.61 1022.49 1022.41 1022.37 1022.33 1022.25 1022.21 1022.17 1022.09 1022.05 1021.97 1021.85 1021.77 1021.69 1021.65 1021.53 1021.45 1021.37 1021.33 1021.21 1021.17 1021.09 1021.05 1020.93 1020.85 1020.73 1020.65 1020.53 1020.41 1020.29 1020.17 1020.09 1020.01 1019.89 1019.77 1019.65 1019.53 1019.41 1019.29 1019.21 1019.17 1019.09 1019.05 1018.93
1023.13 1023.17 1023.21 1023.29 1023.33 1023.37 1023.41 1023.41 1023.41 1023.37 1023.33 1023.33 1023.21 1023.17 1023.17 1023.09 1023.05 1023.05 1023.01 1022.93 1022.89 1022.89 1022.85 1022.73 1022.65 1022.57 1022.45 1022.33 1022.25 1022.17 1022.17 1022.09 1022.05 1021.97 1021.89 1021.85 1021.77 1021.69 1021.61 1021.53 1021.45 1021.33 1021.29 1021.25 1021.17 1021.05 1020.97 1020.85 1020.73 1020.69 1020.61 1020.49 1020.37 1020.25 1020.13 1020.01 1019.89 1019.77 1019.65 1019.53 1019.41 1019.33 1019.17 1019.09 1019.05 1018.97 1018.89 1018.81 1018.73
1023.17 1023.21 1023.25 1023.29 1023.37 1023.41 1023.41 1023.37 1023.37 1023.33 1023.29 1023.21 1023.17 1023.13 1023.09 1023.05 1023.05 1023.01 1022.93 1022.89 1022.85 1022.85 1022.77 1022.69 1022.57 1022.49 1022.41 1022.29 1022.17 1022.09 1022.05 1021.97 1021.93 1021.85 1021.77 1021.69 1021.61 1021.57 1021.49 1021.41 1021.33 1021.25 1021.17 1021.13 1021.05 1020.97 1020.89 1020.73 1020.61 1020.49 1020.41 1020.33 1020.17 1020.05 1019.93 1019.81 1019.69 1019.57 1019.41 1019.29 1019.17 1019.05 1018.97 1018.89 1018.81 1018.73 1018.69 1018.57 1018.41
1023.21 1023.21 1023.29 1023.33 1023.33 1023.33 1023.33 1023.29 1023.29 1023.25 1023.17 1023.13 1023.09 1023.05 1023.05 1023.01 1022.97 1022.97 1022.89 1022.81 1022.73 1022.73 1022.69 1022.61 1022.49 1022.37 1022.33 1022.17 1022.09 1022.01 1021.89 1021.89 1021.81 1021.73 1021.61 1021.57 1021.45 1021.41 1021.33 1021.25 1021.17 1021.13 1021.05 1021.01 1020.93 1020.85 1020.73 1020.61 1020.45 1020.33 1020.21 1020.13 1019.97 1019.85 1019.73 1019.61 1019.45 1019.33 1019.17 1019.05 1018.97 1018.85 1018.73 1018.65 1018.57 1018.45 1018.33 1018.21 1018.13
1023.17 1023.21 1023.25 1023.25 1023.25 1023.25 1023.21 1023.17 1023.17 1023.13 1023.05 1023.05 1023.05 1023.01 1022.97 1022.89 1022.89 1022.89 1022.85 1022.73 1022.61 1022.57 1022.57 1022.53 1022.41 1022.29 1022.17 1022.05 1022.01 1021.89 1021.77 1021.73 1021.65 1021.57 1021.49 1021.45 1021.37 1021.29 1021.21 1021.13 1021.05 1021.01 1020.93 1020.89 1020.77 1020.69 1020.57 1020.41 1020.29 1020.17 1020.05 1019.89 1019.77 1019.61 1019.45 1019.33 1019.17 1019.05 1018.89 1018.81 1018.73 1018.61 1018.49 1018.33 1018.25 1018.13 1018.05 1017.93 1017.85
1023.17 1023.17 1023.13 1023.13 1023.13 1023.13 1023.09 1023.05 1023.05 1023.01 1023.01 1022.97 1022.97 1022.93 1022.89 1022.85 1022.81 1022.77 1022.73 1022.61 1022.49 1022.45 1022.45 1022.45 1022.33 1022.17 1022.09 1021.97 1021.89 1021.77 1021.61 1021.57 1021.49 1021.45 1021.37 1021.29 1021.21 1021.13 1021.05 1021.01 1020.93 1020.89 1020.77 1020.73 1020.61 1020.49 1020.37 1020.25 1020.13 1019.97 1019.85 1019.73 1019.53 1019.37 1019.21 1019.05 1018.89 1018.73 1018.65 1018.57 1018.45 1018.33 1018.17 1018.05 1017.93 1017.81 1017.73 1017.65 1017.61
1023.05 1023.05 1023.01 1023.05 1023.01 1023.01 1023.01 1022.97 1022.93 1022.93 1022.93 1022.93 1022.89 1022.85 1022.81 1022.77 1022.69 1022.61 1022.53 1022.45 1022.41 1022.37 1022.33 1022.25 1022.17 1022.05 1021.93 1021.85 1021.77 1021.65 1021.49 1021.41 1021.37 1021.33 1021.21 1021.13 1021.05 1020.93 1020.89 1020.81 1020.81 1020.73 1020.65 1020.57 1020.45 1020.29 1020.17 1020.05 1019.89 1019.77 1019.61 1019.45 1019.29 1019.13 1018.97 1018.81 1018.69 1018.53 1018.41 1018.29 1018.13 1018.01 1017.85 1017.77 1017.61 1017.53 1017.45 1017.37 1017.29
1022.89 1022.89 1022.89 1022.93 1022.93 1022.89 1022.89 1022.89 1022.89 1022.89 1022.89 1022.85 1022.77 1022.73 1022.73 1022.69 1022.61 1022.49 1022.45 1022.41 1022.33 1022.25 1022.17 1022.05 1021.97 1021.89 1021.77 1021.65 1021.61 1021.53 1021.41 1021.33 1021.25 1021.17 1021.05 1021.05 1020.93 1020.85 1020.77 1020.73 1020.69 1020.61 1020.53 1020.41 1020.29 1020.17 1020.01 1019.85 1019.61 1019.45 1019.33 1019.17 1019.05 1018.89 1018.73 1018.61 1018.45 1018.33 1018.17 1018.01 1017.85 1017.73 1017.61 1017.45 1017.33 1017.25 1017.17 1017.09 1017.01
1022.81 1022.85 1022.85 1022.85 1022.85 1022.85 1022.85 1022.85 1022.85 1022.85 1022.81 1022.73 1022.69 1022.61 1022.61 1022.57 1022.45 1022.41 1022.33 1022.29 1022.21 1022.09 1022.01 1021.89 1021.77 1021.65 1021.57 1021.49 1021.45 1021.41 1021.33 1021.25 1021.17 1021.05 1020.93 1020.89 1020.81 1020.73 1020.65 1020.57 1020.49 1020.45 1020.33 1020.21 1020.09 1019.97 1019.77 1019.53 1019.33 1019.13 1018.97 1018.81 1018.73 1018.57 1018.41 1018.29 1018.17 1018.05 1017.89 1017.77 1017.57 1017.45 1017.29 1017.17 1017.05 1016.97 1016.89 1016.85 1016.73
1022.73 1022.73 1022.77 1022.77 1022.77 1022.77 1022.77 1022.77 1022.81 1022.73 1022.69 1022.61 1022.53 1022.49 1022.49 1022.45 1022.37 1022.33 1022.25 1022.17 1022.05 1021.93 1021.85 1021.77 1021.61 1021.53 1021.45 1021.37 1021.33 1021.25 1021.17 1021.17 1021.09 1021.01 1020.89 1020.73 1020.69 1020.61 1020.49 1020.45 1020.33 1020.17 1020.09 1020.01 1019.77 1019.57 1019.33 1019.13 1018.97 1018.81 1018.65 1018.49 1018.37 1018.25 1018.09 1018.01 1017.89 1017.77 1017.61 1017.45 1017.33 1017.17 1017.05 1016.89 1016.77 1016.73 1016.65 1016.61 1016.53
1022.73 1022.73 1022.73 1022.73 1022.73 1022.73 1022.73 1022.69 1022.69 1022.61 1022.57 1022.49 1022.45 1022.45 1022.41 1022.33 1022.29 1022.25 1022.17 1022.05 1021.89 1021.77 1021.69 1021.61 1021.53 1021.41 1021.29 1021.17 1021.13 1021.09 1021.05 1021.01 1020.93 1020.89 1020.81 1020.69 1020.57 1020.45 1020.37 1020.29 1020.17 1020.05 1019.93 1019.77 1019.57 1019.33 1019.05 1018.85 1018.65 1018.49 1018.37 1018.25 1018.09 1017.97 1017.85 1017.73 1017.61 1017.49 1017.37 1017.25 1017.13 1017.01 1016.85 1016.73 1016.57 1016.49 1016.45 1016.41 1016.33
1022.69 1022.69 1022.69 1022.65 1022.69 1022.69 1022.61 1022.57 1022.53 1022.53 1022.45 1022.41 1022.37 1022.33 1022.29 1022.21 1022.17 1022.09 1022.05 1021.89 1021.77 1021.65 1021.53 1021.45 1021.41 1021.25 1021.09 1021.05 1021.01 1020.97 1020.89 1020.81 1020.73 1020.73 1020.69 1020.61 1020.53 1020.37 1020.25 1020.09 1020.01 1019.89 1019.77 1019.61 1019.33 1019.05 1018.81 1018.61 1018.41 1018.25 1018.09 1018.01 1017.85 1017.73 1017.61 1017.45 1017.33 1017.21 1017.09 1017.01 1016.89 1016.77 1016.65 1016.53 1016.45 1016.33 1016.25 1016.17 1016.09
1022.61 1022.61 1022.61 1022.61 1022.61 1022.61 1022.53 1022.45 1022.45 1022.41 1022.33 1022.29 1022.25 1022.21 1022.17 1022.13 1022.05 1022.01 1021.89 1021.77 1021.65 1021.53 1021.45 1021.33 1021.17 1021.05 1020.97 1020.93 1020.89 1020.89 1020.77 1020.69 1020.61 1020.57 1020.49 1020.45 1020.33 1020.25 1020.13 1019.93 1019.81 1019.69 1019.49 1019.29 1019.05 1018.81 1018.61 1018.37 1018.17 1018.05 1017.89 1017.69 1017.61 1017.45 1017.33 1017.21 1017.09 1016.97 1016.85 1016.73 1016.65 1016.57 1016.45 1016.33 1016.25 1016.17 1016.05 1015.93 1015.85
1022.49 1022.49 1022.53 1022.57 1022.53 1022.49 1022.41 1022.37 1022.33 1022.25 1022.17 1022.17 1022.13 1022.09 1022.05 1022.01 1021.97 1021.89 1021.77 1021.61 1021.53 1021.45 1021.29 1021.13 1020.93 1020.89 1020.89 1020.85 1020.77 1020.69 1020.61 1020.57 1020.49 1020.41 1020.33 1020.29 1020.17 1020.05 1019.93 1019.77 1019.61 1019.45 1019.25 1019.05 1018.85 1018.61 1018.41 1018.17 1017.97 1017.77 1017.61 1017.45 1017.33 1017.21 1017.09 1016.97 1016.85 1016.73 1016.61 1016.49 1016.41 1016.33 1016.21 1016.17 1016.05 1015.97 1015.89 1015.77 1015.61
1022.41 1022.45 1022.45 1022.45 1022.45 1022.37 1022.33 1022.25 1022.17 1022.09 1022.05 1022.05 1022.05 1022.05 1021.97 1021.89 1021.81 1021.73 1021.61 1021.53 1021.37 1021.25 1021.09 1020.93 1020.85 1020.81 1020.77 1020.73 1020.65 1020.57 1020.49 1020.41 1020.33 1020.25 1020.21 1020.17 1020.05 1019.89 1019.69 1019.53 1019.37 1019.25 1019.09 1018.89 1018.65 1018.45 1018.17 1017.97 1017.77 1017.57 1017.37 1017.21 1017.09 1016.97 1016.85 1016.73 1016.65 1016.53 1016.37 1016.29 1016.17 1016.09 1016.05 1015.97 1015.89 1015.77 1015.69 1015.57 1015.41
1022.29 1022.33 1022.37 1022.37 1022.33 1022.29 1022.17 1022.09 1022.01 1021.97 1021.93 1021.93 1021.89 1021.89 1021.85 1021.77 1021.65 1021.53 1021.41 1021.29 1021.13 1020.97 1020.85 1020.77 1020.77 1020.73 1020.69 1020.61 1020.53 1020.45 1020.33 1020.25 1020.17 1020.13 1020.05 1020.01 1019.89 1019.65 1019.45 1019.33 1019.21 1019.05 1018.89 1018.69 1018.45 1018.21 1017.97 1017.77 1017.57 1017.33 1017.17 1017.05 1016.89 1016.73 1016.65 1016.53 1016.45 1016.33 1016.17 1016.13 1016.01 1015.89 1015.81 1015.73 1015.65 1015.57 1015.45 1015.37 1015.21
1022.17 1022.21 1022.25 1022.29 1022.21 1022.17 1022.05 1021.97 1021.89 1021.85 1021.81 1021.81 1021.77 1021.73 1021.65 1021.57 1021.45 1021.33 1021.17 1021.05 1020.93 1020.81 1020.73 1020.73 1020.65 1020.61 1020.49 1020.41 1020.37 1020.33 1020.21 1020.13 1020.05 1019.97 1019.89 1019.77 1019.65 1019.49 1019.33 1019.13 1019.05 1018.89 1018.73 1018.45 1018.21 1017.97 1017.77 1017.53 1017.33 1017.17 1017.01 1016.85 1016.69 1016.57 1016.45 1016.33 1016.25 1016.13 1016.01 1015.89 1015.81 1015.73 1015.61 1015.53 1015.45 1015.37 1015.29 1015.13 1014.97
1022.05 1022.09 1022.17 1022.17 1022.13 1022.05 1021.93 1021.85 1021.77 1021.73 1021.69 1021.69 1021.61 1021.57 1021.45 1021.33 1021.21 1021.13 1021.01 1020.89 1020.77 1020.73 1020.69 1020.61 1020.53 1020.45 1020.41 1020.33 1020.21 1020.13 1020.05 1019.97 1019.85 1019.73 1019.61 1019.53 1019.45 1019.33 1019.17 1018.97 1018.81 1018.65 1018.45 1018.21 1017.97 1017.77 1017.57 1017.37 1017.17 1017.01 1016.77 1016.61 1016.45 1016.37 1016.33 1016.17 1016.05 1015.93 1015.81 1015.69 1015.61 1015.49 1015.45 1015.37 1015.33 1015.17 1015.05 1014.89 1014.73
1021.97 1022.01 1022.05 1022.05 1021.97 1021.89 1021.81 1021.73 1021.65 1021.61 1021.61 1021.57 1021.45 1021.37 1021.25 1021.17 1021.09 1020.97 1020.85 1020.73 1020.61 1020.57 1020.49 1020.45 1020.41 1020.33 1020.25 1020.21 1020.13 1020.05 1019.89 1019.77 1019.65 1019.57 1019.45 1019.37 1019.29 1019.17 1019.01 1018.77 1018.61 1018.41 1018.17 1018.01 1017.77 1017.57 1017.37 1017.17 1017.01 1016.81 1016.61 1016.41 1016.33 1016.25 1016.17 1016.05 1015.89 1015.77 1015.65 1015.53 1015.41 1015.33 1015.25 1015.17 1015.09 1014.97 1014.81 1014.61 1014.45
1021.85 1021.89 1021.93 1021.89 1021.85 1021.77 1021.69 1021.61 1021.57 1021.53 1021.49 1021.45 1021.33 1021.17 1021.05 1020.97 1020.89 1020.81 1020.65 1020.53 1020.45 1020.41 1020.33 1020.29 1020.21 1020.13 1020.09 1020.05 1019.93 1019.89 1019.77 1019.61 1019.45 1019.37 1019.29 1019.17 1019.05 1018.89 1018.73 1018.53 1018.33 1018.17 1018.01 1017.81 1017.61 1017.41 1017.21 1017.05 1016.81 1016.61 1016.41 1016.29 1016.25 1016.17 1016.05 1015.89 1015.73 1015.61 1015.45 1015.37 1015.25 1015.17 1015.09 1015.05 1014.89 1014.73 1014.57 1014.37 1014.25
1021.69 1021.77 1021.85 1021.77 1021.73 1021.61 1021.57 1021.49 1021.45 1021.41 1021.37 1021.29 1021.17 1021.05 1020.89 1020.77 1020.69 1020.61 1020.49 1020.37 1020.33 1020.33 1020.25 1020.17 1020.05 1020.05 1019.97 1019.85 1019.77 1019.69 1019.61 1019.45 1019.33 1019.17 1019.05 1018.97 1018.85 1018.73 1018.53 1018.33 1018.13 1017.97 1017.81 1017.65 1017.45 1017.21 1017.05 1016.81 1016.61 1016.45 1016.25 1016.17 1016.09 1016.01 1015.85 1015.69 1015.53 1015.41 1015.33 1015.21 1015.17 1015.09 1014.97 1014.89 1014.73 1014.53 1014.33 1014.17 1014.05
1021.53 1021.61 1021.65 1021.61 1021.57 1021.45 1021.41 1021.37 1021.33 1021.29 1021.17 1021.05 1020.97 1020.89 1020.73 1020.61 1020.53 1020.41 1020.33 1020.25 1020.25 1020.21 1020.13 1020.05 1019.93 1019.89 1019.77 1019.69 1019.61 1019.45 1019.33 1019.25 1019.17 1019.01 1018.89 1018.73 1018.61 1018.49 1018.33 1018.13 1017.93 1017.77 1017.61 1017.45 1017.29 1017.05 1016.85 1016.61 1016.45 1016.33 1016.17 1016.05 1015.93 1015.77 1015.61 1015.49 1015.37 1015.29 1015.17 1015.13 1015.05 1014.93 1014.81 1014.69 1014.49 1014.33 1014.17 1013.93 1013.77
1021.37 1021.45 1021.45 1021.45 1021.41 1021.33 1021.29 1021.21 1021.17 1021.09 1020.97 1020.85 1020.73 1020.61 1020.53 1020.45 1020.37 1020.29 1020.17 1020.13 1020.17 1020.13 1020.05 1019.89 1019.81 1019.73 1019.61 1019.53 1019.41 1019.25 1019.09 1019.05 1018.93 1018.85 1018.69 1018.57 1018.45 1018.37 1018.17 1017.97 1017.77 1017.57 1017.45 1017.29 1017.09 1016.89 1016.69 1016.49 1016.33 1016.17 1016.05 1015.89 1015.77 1015.61 1015.45 1015.33 1015.25 1015.17 1015.05 1014.97 1014.85 1014.73 1014.61 1014.49 1014.33 1014.09 1013.89 1013.69 1013.45
1021.17 1021.21 1021.29 1021.29 1021.21 1021.17 1021.09 1021.05 1020.97 1020.85 1020.73 1020.61 1020.53 1020.45 1020.37 1020.33 1020.25 1020.17 1020.05 1019.97 1020.01 1020.01 1019.93 1019.81 1019.65 1019.53 1019.41 1019.33 1019.17 1019.05 1018.89 1018.77 1018.73 1018.65 1018.57 1018.41 1018.29 1018.17 1018.01 1017.81 1017.57 1017.41 1017.25 1017.13 1016.93 1016.73 1016.57 1016.37 1016.17 1016.01 1015.89 1015.77 1015.61 1015.45 1015.33 1015.21 1015.09 1015.01 1014.89 1014.77 1014.65 1014.49 1014.41 1014.29 1014.09 1013.89 1013.61 1013.41 1013.09
1021.01 1021.05 1021.05 1021.05 1021.01 1020.93 1020.89 1020.81 1020.73 1020.61 1020.53 1020.45 1020.41 1020.33 1020.25 1020.17 1020.05 1019.97 1019.89 1019.81 1019.85 1019.81 1019.77 1019.65 1019.49 1019.37 1019.21 1019.09 1019.05 1018.89 1018.73 1018.61 1018.49 1018.45 1018.37 1018.25 1018.09 1017.93 1017.77 1017.65 1017.45 1017.29 1017.13 1016.97 1016.81 1016.61 1016.45 1016.25 1016.05 1015.85 1015.69 1015.61 1015.45 1015.33 1015.25 1015.09 1014.97 1014.85 1014.73 1014.61 1014.45 1014.33 1014.13 1013.97 1013.81 1013.61 1013.37 1013.09 1012.77
1020.85 1020.89 1020.89 1020.81 1020.73 1020.73 1020.69 1020.61 1020.45 1020.37 1020.33 1020.29 1020.29 1020.21 1020.09 1019.97 1019.89 1019.81 1019.77 1019.73 1019.69 1019.61 1019.57 1019.45 1019.33 1019.21 1019.09 1018.97 1018.89 1018.73 1018.61 1018.45 1018.33 1018.21 1018.13 1018.05 1017.89 1017.77 1017.65 1017.49 1017.33 1017.17 1017.01 1016.89 1016.69 1016.49 1016.29 1016.05 1015.89 1015.69 1015.53 1015.45 1015.33 1015.21 1015.09 1014.97 1014.85 1014.69 1014.57 1014.45 1014.29 1014.09 1013.89 1013.61 1013.45 1013.33 1013.13 1012.89 1012.65
Wind_Speed
4 4 4 4 3 3 2 2 1 2 2 2 2 2 2 2 1 2 2 2 2 2 2 2 3 3 3 3 3 4 4 4 5 5 5 5 5 5 5 5 4 4 4 4 4 4 3 3 3 3 3 3 3 4 4 3 3 4 4 4 4 4 5 5 6 6 6 6 5
4 4 4 4 3 3 2 2 1 1 1 1 2 2 2 2 2 2 2 2 2 2 2 2 2 3 3 4 3 3 3 4 4 4 5 5 5 5 4 4 4 4 4 4 4 4 4 3 3 3 4 4 4 4 4 4 3 4 4 5 4 4 4 5 6 6 6 5 5
4 4 3 3 3 3 2 2 1 1 1 1 1 1 2 2 2 2 2 2 2 2 2 2 2 2 3 4 3 3 2 3 3 4 4 5 5 5 4 4 4 4 4 4 4 4 4 3 4 4 4 4 4 4 4 4 3 3 4 5 4 4 4 5 5 5 5 5 5
4 3 3 3 3 3 3 2 2 2 1 1 1 1 1 1 1 1 1 2 2 2 2 2 3 3 3 3 3 3 3 3 3 4 4 5 5 5 5 4 4 5 5 4 4 4 4 4 4 4 4 5 5 4 4 4 4 3 3 4 4 4 4 4 4 4 4 5 5
3 2 2 2 3 3 2 2 2 2 1 1 0 0 0 1 1 1 1 2 2 2 2 2 3 3 3 2 3 3 4 4 4 4 4 5 5 5 5 4 5 5 5 5 5 5 4 4 4 4 4 4 4 4 4 4 4 4 4 4 3 4 4 4 4 4 4 4 4
3 2 1 1 2 2 2 2 2 2 1 1 1 1 1 1 1 1 2 2 3 3 3 3 3 3 3 3 3 4 4 4 4 4 4 5 5 5 5 5 5 5 5 5 5 5 5 4 4 4 4 4 4 4 4 4 4 4 4 4 4 4 4 4 4 4 4 5 5
3 2 2 1 2 2 2 1 1 1 1 1 1 1 2 2 2 2 3 3 3 3 3 3 3 3 3 3 4 4 5 5 5 5 5 5 5 6 6 6 6 6 6 6 6 5 5 4 4 4 5 5 4 5 5 4 4 5 5 6 5 4 4 5 4 4 5 6 6
3 3 2 2 2 2 2 2 2 2 1 1 1 1 2 2 2 3 3 3 3 3 3 2 3 3 3 3 4 5 5 6 6 6 5 5 6 6 6 6 6 6 6 6 6 6 5 4 4 4 5 4 4 5 5 5 5 5 6 7 6 5 4 5 4 5 5 7 7
3 3 2 2 2 2 2 2 2 2 1 1 0 1 1 2 2 2 3 3 3 3 3 2 3 3 3 4 5 5 5 5 6 6 6 6 6 7 7 6 7 7 7 6 6 6 6 5 4 5 5 4 5 5 6 6 6 6 7 6 6 6 6 5 5 5 6 7 7
3 2 2 2 2 1 1 2 2 2 1 0 1 1 1 2 2 2 2 2 3 3 3 3 3 3 4 5 5 6 6 6 6 6 7 6 7 7 7 6 7 7 7 7 6 6 6 5 5 6 5 5 6 6 7 7 7 7 7 6 6 7 7 7 6 6 6 6 8
3 2 2 2 1 1 1 2 2 1 1 1 1 2 2 2 2 2 2 2 3 4 4 4 4 4 5 6 6 6 6 6 6 6 6 7 7 7 7 7 7 7 7 7 6 6 6 5 6 7 7 6 6 7 7 7 7 8 8 7 7 8 8 8 7 7 7 7 8
2 2 1 1 1 1 2 2 2 1 1 2 2 2 2 3 3 3 3 3 4 4 5 4 4 4 5 5 6 6 6 6 6 6 6 7 7 7 7 7 7 7 7 7 6 5 5 6 7 8 8 8 7 7 7 8 8 8 9 8 8 8 8 9 9 8 7 7 8
2 2 1 1 1 2 2 2 2 1 2 2 2 3 3 3 3 3 3 3 4 5 5 5 4 4 5 6 6 6 6 6 6 6 6 7 7 7 7 7 7 7 7 7 6 6 6 6 7 8 9 9 8 7 8 8 8 9 9 9 9 9 9 10 9 8 7 7 8
2 2 1 1 2 2 2 2 2 1 2 2 3 3 3 4 3 3 3 4 5 5 5 5 5 5 5 6 6 6 6 6 6 6 7 7 7 7 7 7 8 7 7 7 6 6 7 7 7 8 8 9 9 9 8 8 8 8 9 9 10 10 10 10 9 9 8 8 9
2 2 1 1 2 2 2 1 1 1 2 2 3 3 3 4 4 3 3 4 5 5 5 5 5 5 6 6 6 6 6 6 6 6 7 7 7 7 7 8 8 8 7 7 6 6 7 7 8 8 8 9 9 9 9 8 8 8 9 9 10 10 10 10 9 9 9 9 9
2 2 1 2 2 1 1 1 0 1 2 2 3 3 3 4 4 4 4 4 5 5 5 5 6 6 6 6 6 6 6 6 6 6 7 7 7 8 8 8 8 8 8 8 7 7 7 7 7 8 8 9 9 9 9 9 9 9 9 9 10 10 10 10 10 9 9 9 9
2 1 1 1 1 1 0 1 1 1 2 3 3 3 3 4 4 4 4 5 5 5 6 6 6 6 6 6 6 5 5 5 6 6 7 7 8 8 8 8 8 8 8 8 8 8 8 8 8 8 8 8 8 9 9 9 9 9 10 10 10 10 10 10 10 9 9 9 10
1 1 1 1 0 1 1 1 2 2 2 3 3 4 4 4 4 4 5 5 5 5 6 7 6 6 6 6 6 5 5 5 6 6 7 7 7 8 8 8 8 8 7 7 7 8 8 9 8 8 8 8 8 9 9 9 9 10 10 10 10 10 10 10 10 9 9 10 10
1 0 1 1 1 2 2 2 2 3 3 3 4 4 4 5 5 5 5 5 5 5 6 7 7 6 6 6 6 6 5 5 6 7 7 7 7 7 8 8 8 7 7 7 7 8 8 9 9 9 9 9 9 9 9 9 9 10 10 10 10 9 9 10 10 10 10 10 11
1 2 2 2 3 3 3 3 3 3 3 3 4 4 5 6 5 5 6 7 6 6 5 6 6 7 7 6 6 6 5 5 6 7 7 7 7 7 8 8 8 7 7 7 7 8 8 9 9 9 9 9 10 10 10 10 10 10 10 9 9 9 10 10 10 10 10 10 10
2 3 3 3 3 3 3 3 3 3 3 4 4 5 6 6 6 6 7 7 6 6 5 6 6 7 7 7 7 7 6 5 6 6 7 7 7 8 8 7 7 7 7 7 7 8 8 9 9 9 9 9 10 10 10 10 10 10 10 9 9 9 10 10 10 10 10 9 9
3 4 4 3 3 3 3 3 3 3 3 4 5 6 6 6 7 7 6 6 5 5 6 6 7 7 7 7 7 7 6 5 6 6 6 7 7 7 7 7 7 7 8 8 8 8 9 9 9 9 9 9 10 10 10 10 10 10 10 10 10 10 10 10 10 10 9 9 9
3 3 3 3 3 3 3 3 3 3 3 4 5 6 6 7 7 6 6 5 5 5 6 6 6 6 7 7 6 6 6 6 6 7 7 6 7 7 7 7 7 7 8 7 7 8 8 8 9 9 9 9 9 9 10 10 9 9 9 10 10 10 10 10 10 9 9 9 9
3 3 3 2 2 2 3 2 3 3 4 6 6 6 6 7 6 6 5 5 6 6 6 6 5 6 6 6 6 6 6 6 7 7 7 7 7 7 8 7 7 7 7 7 8 9 9 9 8 8 8 8 8 8 8 8 8 9 9 10 10 10 10 10 10 9 9 9 9
3 2 2 2 2 2 3 3 4 5 6 7 6 6 6 7 6 6 5 5 6 6 6 6 5 5 5 5 6 6 6 6 7 7 7 8 8 8 8 7 7 7 7 7 12 16 17 16 12 10 8 7 8 8 8 8 8 9 9 9 10 10 10 10 10 10 9 9 9
2 2 3 3 3 3 3 4 5 6 7 6 6 6 7 7 6 5 5 6 6 6 6 5 5 5 5 5 5 6 6 6 6 7 7 8 8 8 8 7 7 6 7 9 15 19 21 22 21 17 12 8 8 8 8 8 8 9 9 9 9 10 10 10 10 10 9 9 9
2 3 3 3 3 4 5 6 6 6 6 6 7 7 7 6 5 5 5 6 6 5 5 4 4 5 5 5 5 6 6 6 6 7 7 8 8 9 9 8 7 6 7 12 17 20 22 23 23 22 18 12 9 8 8 8 8 9 9 9 9 9 9 9 10 10 10 10 10
3 3 3 3 4 5 6 6 6 7 7 7 7 7 6 5 5 5 5 5 5 5 4 4 4 4 4 4 5 6 7 7 7 7 7 7 8 9 9 9 8 8 10 15 19 21 23 23 23 23 21 17 12 9 8 8 8 8 8 8 8 8 8 8 8 8 9 10 11
3 3 3 4 5 6 6 6 7 8 8 7 6 6 5 5 5 5 5 5 4 4 4 4 4 4 4 5 6 7 7 7 7 6 6 7 8 8 9 9 9 10 13 18 20 22 23 23 23 23 23 21 14 9 7 7 7 8 8 7 7 8 8 8 7 8 9 11 11
4 4 4 5 6 7 7 7 8 8 7 6 5 5 6 5 6 5 5 5 5 4 4 4 4 4 5 6 6 6 7 7 7 6 6 7 8 9 9 10 9 10 13 18 20 22 23 23 23 23 23 23 18 12 8 7 7 8 8 7 7 8 8 8 9 9 10 10 11
4 4 4 5 6 7 8 8 8 7 7 6 6 6 6 6 6 6 5 4 5 5 5 4 5 6 6 6 6 6 7 7 7 7 7 8 9 10 10 10 9 10 13 18 20 22 23 23 23 24 24 24 19 13 9 8 8 8 8 8 8 9 9 9 9 9 10 11 11
5 5 5 6 7 8 8 8 7 7 6 6 6 6 6 6 6 5 4 4 4 4 5 4 5 6 7 7 6 6 7 7 7 7 7 8 9 9 9 10 9 10 13 18 21 22 23 24 24 24 24 24 19 14 10 9 9 9 9 9 10 10 10 8 8 9 10 12 12
5 5 5 6 7 8 8 8 7 7 6 6 6 6 6 6 5 4 4 4 4 4 4 5 6 6 7 7 7 7 7 8 8 9 9 9 9 9 9 10 9 11 14 19 21 23 24 24 24 24 24 24 19 14 11 10 9 9 9 9 10 10 10 9 9 10 11 12 12
6 6 6 7 7 8 8 8 7 6 5 5 5 5 5 5 4 4 4 4 4 4 4 5 5 6 6 6 6 7 8 9 8 9 8 8 9 9 9 9 8 11 16 20 22 23 24 24 24 24 24 24 17 12 10 10 10 9 9 9 9 9 9 9 9 10 12 12 12
6 6 6 7 7 7 7 7 6 5 4 5 5 5 5 4 4 5 5 4 4 4 4 5 5 5 5 6 6 6 7 9 9 9 9 9 9 10 10 11 10 13 17 21 22 23 23 24 24 24 24 20 13 10 9 10 10 10 10 10 9 9 9 9 10 11 12 12 12
6 6 7 7 7 7 7 6 5 4 4 5 6 6 5 4 4 4 4 4 4 5 5 5 5 5 5 6 6 7 7 9 9 9 9 9 9 10 11 12 11 13 17 20 22 23 23 24 24 24 22 17 10 8 8 8 8 9 9 9 9 9 9 10 10 11 11 11 11
6 6 7 7 7 7 6 5 4 4 5 5 5 5 5 4 4 4 4 4 4 5 5 5 6 6 6 6 7 7 8 8 8 9 10 10 10 10 11 12 12 13 15 19 21 22 23 23 24 23 20 14 9 8 8 7 7 7 8 8 9 9 9 9 10 11 11 11 13
6 6 6 6 7 6 6 5 4 4 5 6 5 4 4 4 4 4 4 4 4 5 5 6 6 7 7 7 9 9 9 9 9 9 10 10 10 10 11 12 12 12 14 17 20 22 23 23 23 22 19 13 10 8 8 7 6 7 7 8 8 8 8 8 8 9 11 13 16
6 6 6 6 6 6 5 4 4 5 5 5 5 4 4 4 4 4 4 4 4 4 5 6 7 8 8 9 9 10 10 10 9 9 10 10 10 11 12 13 12 12 13 17 20 21 22 22 23 22 20 14 10 8 7 6 7 7 7 8 8 8 8 8 8 9 10 13 18
6 6 6 6 6 5 5 5 5 5 4 4 5 4 4 4 4 4 4 4 4 4 5 6 7 8 9 9 9 10 10 10 10 10 10 10 11 13 14 13 12 12 13 16 19 21 21 22 22 22 19 13 9 7 6 6 7 8 8 8 8 8 8 8 8 9 10 12 14
5 5 6 6 6 5 4 4 5 4 4 4 4 4 4 4 4 4 4 4 4 5 5 6 8 9 9 9 9 10 10 11 11 10 10 10 11 12 13 12 11 11 12 14 17 19 20 21 21 21 19 14 9 7 6 6 7 8 9 9 9 8 9 9 9 9 9 9 9
Wind_Direction
117 124 131 137 134 131 129 130 139 147 153 160 172 177 178 176 205 223 224 209 224 242 254 259 263 270 278 285 288 292 296 300 303 304 303 300 296 295 296 297 297 297 297 297 299 300 300 299 302 304 305 303 304 303 302 302 302 300 298 295 292 291 290 289 287 286 284 282 280
119 121 121 117 111 109 111 119 132 148 160 172 176 177 178 180 201 222 232 229 233 243 257 269 271 278 285 289 289 292 295 299 301 302 302 300 296 295 296 297 296 296 297 300 302 305 309 314 317 317 315 314 315 312 308 303 304 304 302 298 295 294 294 293 290 288 287 287 288
114 111 105 104 107 112 121 136 150 166 178 192 185 181 182 192 206 225 239 245 248 256 268 279 282 286 290 294 296 295 292 291 295 298 299 298 298 298 299 300 301 302 303 304 307 310 314 318 319 319 319 319 317 313 308 306 307 305 302 297 296 297 299 297 296 295 296 296 297
105 107 112 120 129 137 144 149 153 161 168 176 181 188 198 212 224 240 257 274 282 281 279 282 288 291 292 296 299 299 296 291 292 293 296 298 300 301 301 304 307 308 308 310 312 314 316 319 319 319 318 315 312 308 305 304 306 304 299 296 298 300 300 298 297 298 298 297 296
100 111 127 142 147 150 149 143 137 139 143 138 138 195 232 232 247 273 295 307 297 290 286 289 290 291 292 294 298 299 299 298 297 297 299 301 302 303 305 309 309 309 310 313 314 316 318 319 319 318 315 311 307 302 299 299 304 303 300 300 302 300 298 297 297 296 295 295 295
113 119 127 135 131 128 123 119 120 121 117 103 66 8 334 313 314 313 307 299 293 293 294 294 293 295 299 303 303 303 302 302 302 302 304 304 305 308 311 312 310 310 312 314 315 316 318 320 320 317 314 311 307 303 300 302 305 306 305 305 302 300 298 295 293 294 294 294 295
113 108 98 90 96 96 97 100 108 109 105 91 59 4 329 315 314 305 295 289 295 300 302 302 302 305 307 309 307 306 305 306 306 305 306 306 308 310 311 311 311 312 312 312 314 315 316 317 318 316 314 313 309 306 304 307 308 308 306 303 300 298 295 291 290 292 294 294 293
83 80 79 82 86 90 94 101 102 98 91 83 56 331 305 299 299 297 296 300 303 303 303 306 303 301 301 303 303 304 305 308 309 308 309 309 310 310 310 310 312 311 310 309 311 312 312 313 313 310 310 309 307 306 307 308 308 305 302 299 298 295 293 291 292 293 293 293 292
64 62 64 69 73 81 91 101 99 94 88 73 318 274 274 282 287 296 303 307 304 302 302 303 299 299 301 303 303 303 304 306 307 308 308 309 310 309 309 310 311 310 308 309 309 310 310 311 309 307 305 306 305 304 304 305 304 300 297 295 295 295 293 292 293 293 292 291 291
69 62 59 60 58 69 85 93 91 91 87 39 299 282 281 293 296 297 296 296 305 309 309 303 306 308 309 307 305 304 303 304 305 306 307 308 307 307 306 307 307 307 307 307 308 308 309 309 307 305 303 302 302 302 301 300 298 296 294 294 296 297 296 295 293 292 291 290 289
83 76 70 74 72 78 82 79 76 70 55 3 323 312 308 311 308 302 300 304 316 314 309 305 310 312 310 307 305 304 303 304 305 305 306 305 304 303 302 301 301 302 302 303 305 307 308 307 305 304 303 303 302 300 299 297 296 295 294 293 294 295 295 294 293 292 291 290 289
96 91 86 91 95 84 74 67 58 45 23 351 330 320 314 311 306 307 312 322 319 312 307 307 310 309 307 304 303 303 304 304 304 304 304 303 301 300 299 299 298 298 299 299 301 303 305 304 304 303 302 301 300 300 299 297 297 296 294 293 293 293 293 293 292 291 291 290 290
106 100 91 87 81 73 65 55 42 26 4 341 323 315 310 305 304 311 319 320 313 308 307 308 308 305 302 300 301 302 303 303 303 303 302 301 300 300 300 299 298 298 298 298 299 301 302 301 300 299 299 299 298 296 295 295 294 293 293 293 293 292 290 290 290 290 290 290 290
102 97 91 85 74 68 61 46 29 7 343 324 310 305 304 306 307 311 316 312 305 303 303 306 305 302 299 297 298 298 299 300 301 301 299 298 298 298 298 298 298 297 297 297 298 298 298 297 296 295 294 294 294 293 292 291 290 288 288 288 288 288 287 287 287 288 289 289 288
89 86 84 80 71 65 57 41 13 339 318 307 298 299 303 306 307 308 309 304 299 297 298 302 301 299 298 296 295 295 295 297 298 298 298 297 297 297 297 297 297 297 296 296 297 296 294 292 291 291 291 291 291 290 290 288 286 284 283 282 282 283 283 284 285 286 286 286 286
81 74 68 69 66 58 47 9 316 295 293 291 292 297 303 302 303 304 303 299 296 296 297 297 296 297 298 297 295 295 295 296 296 296 296 297 297 297 297 297 297 296 295 295 296 295 292 290 289 288 288 288 288 288 287 286 284 282 279 278 277 278 279 280 281 281 281 280 281
78 70 64 69 67 52 334 280 270 271 279 284 291 294 296 295 298 298 297 293 293 295 295 293 292 293 296 296 296 296 296 296 295 295 295 295 296 296 296 295 294 293 293 293 294 294 293 292 290 289 287 285 285 284 283 282 281 280 278 277 276 275 275 276 277 277 276 275 275
82 79 76 90 136 226 247 256 260 264 271 277 283 286 287 288 289 290 290 289 288 288 289 289 289 290 291 291 293 293 293 294 293 293 292 292 292 292 292 292 291 291 291 292 292 292 292 291 291 290 288 286 284 283 281 280 279 278 276 275 274 273 273 273 272 271 271 270 269
146 188 211 210 216 223 233 243 249 255 261 268 274 279 281 281 281 284 286 286 283 281 282 285 287 287 287 286 287 289 290 290 290 290 290 289 290 290 290 290 291 291 291 291 290 289 289 289 289 289 289 288 286 284 282 279 278 276 275 274 273 272 271 269 267 266 265 265 266
201 214 219 218 217 221 227 232 237 245 254 264 270 275 276 277 277 278 279 280 279 278 278 279 283 284 285 285 287 288 288 287 288 289 289 289 290 290 290 290 291 292 292 292 290 289 288 288 288 288 287 286 285 283 282 279 278 276 274 273 271 269 267 266 264 263 263 263 264
214 218 219 217 215 219 225 229 233 242 254 264 267 270 271 274 275 273 272 272 276 277 277 275 276 279 282 285 287 287 287 288 289 289 289 291 291 290 290 291 293 294 295 294 292 290 288 287 286 285 284 283 281 280 279 278 278 276 274 272 270 268 266 265 265 265 264 263 262
220 221 219 217 217 221 227 233 239 248 258 264 265 267 269 271 271 269 268 270 274 275 273 271 272 274 276 280 283 285 287 289 290 289 289 291 292 292 292 294 296 296 296 294 292 290 288 286 284 281 279 278 276 275 274 274 275 274 273 271 271 269 268 268 269 270 269 266 265
222 222 222 220 224 231 238 244 250 256 261 264 265 266 267 268 268 269 270 272 272 271 270 270 271 272 273 275 278 282 286 290 292 291 291 291 292 293 295 296 296 295 293 291 289 287 286 285 282 278 275 272 272 271 270 269 270 271 272 273 274 274 274 275 275 275 274 272 271
223 228 231 230 234 238 244 249 255 259 261 263 264 265 267 268 270 272 274 273 271 270 270 272 274 275 276 278 278 280 283 288 292 294 294 294 294 294 295 296 295 293 290 288 289 291 292 291 286 282 279 276 275 273 272 270 270 271 273 275 278 280 281 281 280 280 279 279 277
228 237 244 246 243 245 249 253 256 258 260 262 264 266 268 270 271 272 274 274 273 272 272 275 278 280 281 282 281 281 282 285 289 292 295 297 296 296 297 297 295 293 291 288 293 296 299 301 301 298 293 289 287 285 282 280 278 277 277 278 280 283 284 285 284 283 282 282 281
235 245 250 248 249 254 256 255 256 258 261 265 268 269 269 269 269 269 271 273 274 275 277 279 281 284 286 287 288 290 289 288 289 291 293 295 296 296 296 295 295 293 291 291 296 300 303 305 306 306 304 299 296 293 289 286 283 280 279 278 279 281 283 285 286 286 285 285 282
242 248 250 251 257 259 259 258 261 264 267 268 269 269 269 268 270 270 271 272 274 276 279 281 281 285 288 292 295 295 294 293 292 291 289 289 291 292 293 293 292 291 290 292 298 302 305 308 308 308 308 303 299 295 292 290 287 284 281 279 278 278 279 281 283 286 287 288 285
242 246 252 260 262 262 262 265 268 268 268 267 266 266 268 271 271 271 271 273 276 280 283 282 281 285 291 296 296 294 292 292 292 290 288 287 287 288 289 290 290 289 291 295 300 304 307 309 309 309 308 306 302 297 293 291 289 288 285 281 279 277 277 278 280 284 287 289 288
240 247 256 263 265 267 269 270 268 267 266 265 266 267 269 271 271 271 272 275 279 282 285 286 290 296 300 299 295 294 292 290 289 289 289 289 289 287 287 287 287 289 293 298 302 305 307 308 308 308 308 309 306 302 297 293 291 290 288 284 282 281 280 280 281 284 287 288 287
242 248 257 262 266 269 270 269 266 266 266 267 268 269 270 271 271 272 272 273 275 277 281 288 297 301 299 295 294 294 293 290 289 289 289 289 288 288 287 288 288 290 295 299 302 304 306 307 308 308 309 309 308 304 298 294 292 290 289 286 284 282 282 282 283 284 285 285 284
248 251 256 261 266 268 268 267 267 267 268 269 268 268 268 269 269 268 266 267 272 279 286 295 298 296 293 290 291 290 290 290 290 289 287 286 286 287 288 289 289 291 294 298 301 304 306 308 309 309 309 310 309 306 300 297 294 292 290 288 285 284 284 283 283 282 281 280 279
255 256 258 261 264 265 266 267 268 268 267 267 266 265 264 263 261 259 259 263 277 289 297 301 299 296 294 294 292 291 290 290 290 288 286 285 285 286 288 290 290 290 293 298 302 305 307 309 309 309 309 309 308 306 302 299 296 293 290 288 286 285 284 284 282 279 277 275 276
260 259 259 259 261 264 265 267 267 267 266 265 262 261 260 259 260 263 267 272 282 290 295 297 296 295 295 295 295 293 292 290 289 288 287 286 286 287 288 290 290 292 296 301 304 306 308 309 309 309 309 309 308 306 304 301 297 294 291 289 287 285 283 281 279 276 275 274 275
260 259 257 257 259 261 264 265 265 265 264 263 260 258 257 259 267 274 279 281 286 289 290 290 289 289 288 289 290 291 291 292 291 290 289 287 287 288 289 290 290 294 299 302 305 307 308 308 309 309 309 310 308 306 303 299 295 292 290 288 287 286 284 280 277 275 275 275 276
258 257 256 256 257 259 261 263 263 262 261 261 261 260 259 260 267 274 279 285 290 292 291 288 286 286 286 286 286 287 289 291 291 291 290 289 290 290 290 291 291 295 299 302 304 306 307 308 308 309 310 310 309 305 299 295 293 291 291 290 290 289 286 282 279 278 277 277 277
253 251 252 254 256 257 258 259 260 259 258 259 262 265 268 269 270 273 278 286 291 293 292 291 291 292 292 292 290 289 290 290 292 292 292 293 293 293 293 293 293 296 299 302 304 306 307 308 309 310 310 310 306 301 296 293 292 293 294 294 293 290 287 284 282 281 279 279 277
247 243 244 249 253 255 254 253 252 255 258 261 264 268 272 277 278 279 282 289 294 294 293 293 294 294 294 294 293 292 290 290 291 293 295 296 296 296 295 295 295 296 298 301 303 305 307 308 309 310 310 308 304 299 297 295 295 296 297 296 293 290 287 285 284 283 282 280 278
242 236 234 239 245 248 248 245 247 254 260 265 267 270 273 279 282 284 286 290 293 293 294 294 295 294 293 293 293 293 292 291 292 294 296 297 296 296 296 296 295 296 298 301 303 305 306 308 308 309 309 306 303 301 300 299 298 298 298 297 295 292 288 287 286 285 283 280 279
237 229 225 228 235 239 242 242 247 254 261 268 272 276 278 280 282 283 285 287 287 288 290 292 292 293 293 295 296 297 296 295 295 295 296 296 295 296 296 296 296 296 298 300 302 303 305 306 307 308 308 305 304 302 301 300 299 299 298 298 296 293 290 288 288 287 284 280 279
231 222 218 221 227 232 238 246 252 256 261 269 275 277 278 278 280 282 285 287 285 285 287 289 290 292 294 298 299 299 299 299 298 296 295 294 294 296 297 296 295 295 296 298 299 301 302 304 305 307 307 305 304 302 301 300 300 299 298 297 295 293 292 290 289 288 285 281 280
224 217 215 219 223 229 238 251 258 261 263 267 269 270 272 276 281 284 288 290 288 288 289 291 292 293 296 299 300 300 300 299 298 297 295 295 294 295 296 294 293 292 292 293 295 297 299 302 304 306 308 307 305 304 303 301 300 298 296 293 292 290 289 290 288 287 286 286 286